CAPE
28 26 11 5 10 15 18 20 14 9 7 4 4 4 4 3 7 2 4 19 7 24 9 5 3 4 2 0 0 0 0 0 0 0 0 0 0 0 0 0 0 0 1 1 2 6 2 6 59 29 31 77 55 73
3 1 4 0 8 3 16 5 9 7 2 4 4 3 6 3 6 4 6 17 31 16 13 0 0 0 0 0 0 0 0 0 0 0 0 0 0 0 0 0 0 2 15 18 11 10 0 6 36 97 109 74 156 182
18 8 8 10 9 7 2 7 12 20 17 6 3 5 5 3 5 3 13 12 29 22 4 0 0 0 0 0 0 2 0 0 0 0 0 0 0 0 0 0 0 0 1 0 0 0 0 0 46 66 91 143 258 416
31 27 18 10 8 12 5 5 21 16 11 9 6 4 3 5 5 2 8 10 16 25 6 0 0 0 0 0 0 0 0 0 0 0 0 0 0 0 0 0 0 0 0 0 0 0 0 24 51 76 272 484 352 262
20 13 14 6 9 12 8 2 10 18 16 8 15 4 5 5 6 0 2 1 6 12 13 0 0 0 0 0 0 0 0 0 0 0 0 0 0 0 0 0 0 0 0 0 0 0 0 1 36 286 279 199 248 356
13 6 12 17 14 11 7 2 3 7 13 30 20 10 4 9 2 1 39 0 0 16 2 3 0 0 0 0 0 0 0 0 0 0 0 0 0 0 0 0 0 0 0 0 0 15 63 56 129 149 155 298 414 459
23 7 3 7 7 4 3 1 3 6 20 15 15 10 9 11 0 1 9 2 3 25 39 6 0 0 0 0 0 0 0 0 0 0 0 0 0 0 0 0 0 0 0 0 0 28 140 173 101 120 177 245 401 433
6 4 3 9 10 1 0 4 13 11 18 14 18 14 12 9 0 0 0 0 18 5 51 10 0 0 0 0 0 0 0 0 0 0 0 0 0 0 1 0 0 0 0 0 0 129 134 170 181 349 385 333 260 328
9 8 5 8 0 0 2 5 15 18 17 20 22 10 4 2 10 0 13 17 20 12 23 10 0 0 0 0 0 0 0 0 0 0 0 0 0 0 0 0 0 1 91 164 89 83 84 141 153 133 79 43 42 34
6 13 13 9 2 2 0 4 13 16 23 28 8 0 3 5 24 28 61 25 27 16 6 3 0 0 0 2 0 0 0 1 0 0 0 0 0 0 0 6 55 99 102 94 31 35 75 36 17 2 1 7 21 33
8 8 12 11 3 1 2 10 18 25 24 0 3 4 6 53 20 10 8 16 7 6 2 0 0 0 0 0 5 0 0 0 0 1 0 0 24 93 120 157 235 270 318 376 164 247 237 90 53 72 99 89 90 82
9 10 6 10 2 0 4 8 9 13 0 7 5 41 78 16 15 11 3 4 7 0 0 0 0 0 0 0 4 56 7 11 19 4 5 15 58 53 21 16 3 60 34 55 143 27 5 2 9 31 110 76 67 28
10 9 9 4 1 7 6 12 9 2 0 0 41 15 35 6 8 2 1 3 2 0 1 0 0 0 0 0 8 13 20 22 22 47 4 55 30 101 69 55 36 10 1 0 0 0 0 0 0 4 8 107 96 75
11 8 1 0 8 7 8 10 6 6 0 1 0 2 3 0 0 0 0 0 0 14 1 0 0 0 41 31 0 0 5 2 30 25 43 1 1 49 27 22 35 12 0 0 0 0 0 0 0 0 1 3 81 105
8 4 5 10 6 2 3 1 0 0 14 6 7 3 1 0 0 0 0 0 0 0 0 1 0 0 5 8 4 4 13 12 12 24 0 0 21 43 57 59 32 16 9 3 8 15 17 11 4 5 1 0 8 20
7 7 4 5 6 2 3 0 13 4 7 6 6 2 31 6 6 0 0 0 0 0 0 0 1 0 1 0 2 15 23 4 3 8 2 0 31 34 31 39 21 14 26 31 32 19 4 0 0 1 1 0 8 8
9 0 11 5 0 0 4 4 1 15 0 0 1 0 2 1 0 0 0 0 0 15 19 14 0 0 17 10 2 1 29 5 6 25 10 1 30 11 7 0 9 24 26 40 37 3 4 14 14 17 18 19 30 11
0 1 0 0 1 12 5 0 1 0 1 0 0 1 0 0 0 0 0 0 34 53 27 4 0 0 0 0 1 0 0 0 0 0 0 0 0 0 0 0 2 13 40 15 3 14 19 17 12 12 5 19 35 19
0 0 0 0 3 5 2 2 1 2 1 0 0 0 0 0 0 0 0 0 0 29 22 5 0 0 0 0 0 0 0 0 0 0 0 0 0 0 0 0 0 0 0 0 0 0 6 50 47 53 54 20 0 0
0 0 0 0 8 19 8 6 3 0 0 0 0 0 1 0 1 4 0 0 0 0 0 0 0 0 0 0 0 0 0 0 0 15 5 1 0 0 0 0 0 0 0 0 0 0 0 0 0 23 47 13 1 0
0 0 0 0 0 0 0 0 0 0 0 0 0 1 1 0 0 0 0 0 0 1 2 2 16 4 0 0 0 0 0 0 12 27 7 0 0 2 0 0 0 0 0 0 0 0 0 0 2 22 5 1 1 0
0 0 0 0 0 0 0 0 0 0 0 0 2 0 0 0 4 2 12 2 1 4 8 22 30 48 42 24 8 0 2 18 24 7 6 10 22 11 0 0 0 0 0 0 0 0 0 1 1 1 0 0 0 0
0 0 0 0 0 0 0 0 0 0 0 10 7 2 1 0 0 4 9 4 1 0 12 24 31 15 13 3 0 2 12 19 23 29 13 5 2 0 0 0 0 0 0 0 0 0 0 0 0 0 0 0 0 0
0 0 0 0 0 0 0 0 0 0 0 0 0 0 0 0 2 4 8 9 5 12 19 17 22 24 11 5 5 5 4 1 3 8 9 2 0 0 0 0 0 0 0 0 0 0 0 0 0 0 0 0 0 0
0 0 0 0 0 0 0 0 0 0 0 0 0 0 0 0 0 1 1 3 4 2 20 23 4 8 0 0 0 0 0 0 12 0 0 1 0 0 0 0 0 0 0 0 0 0 0 0 0 0 0 0 0 0
0 0 0 0 0 0 0 0 0 0 0 0 0 0 0 0 1 2 3 4 6 21 22 1 0 0 0 0 0 0 0 0 0 0 0 0 0 0 0 0 0 0 0 0 0 0 0 0 0 0 0 0 0 0
0 0 0 0 0 0 0 0 0 0 0 0 0 0 1 1 2 1 9 15 5 0 0 0 0 0 0 0 0 0 0 0 0 0 0 0 0 0 0 0 0 0 0 0 0 0 0 0 0 0 0 0 0 0
0 0 0 0 0 0 0 0 0 0 0 0 0 0 0 2 1 1 4 0 0 0 0 0 0 0 0 0 0 0 0 0 0 0 0 0 0 0 0 0 0 0 0 0 0 0 0 0 0 0 0 0 0 0
0 0 0 0 0 0 0 0 0 0 0 0 0 0 0 0 0 0 0 0 0 0 0 0 0 0 0 0 0 0 0 0 0 0 0 0 0 0 0 0 0 0 0 0 0 0 0 0 0 0 0 0 0 0
0 0 0 0 0 0 0 0 0 0 0 0 0 0 0 0 0 0 0 0 0 0 0 0 0 0 0 0 0 0 0 0 0 0 0 0 0 0 0 0 0 0 0 0 0 0 0 0 0 0 0 0 0 0
0 0 0 0 0 0 0 0 0 0 0 0 0 0 0 0 0 0 0 0 0 0 0 0 0 0 0 0 0 0 0 0 0 0 0 0 0 0 0 0 0 0 0 0 0 0 0 0 0 0 0 0 0 0
0 0 0 0 0 0 0 0 0 0 0 0 0 0 0 0 0 2 0 0 0 0 0 0 0 0 0 0 0 0 0 0 0 0 0 0 0 0 0 0 0 0 0 0 0 0 0 0 0 0 0 0 0 0
0 0 5 5 1 0 0 0 0 0 0 0 0 0 0 0 0 2 0 0 0 0 0 0 0 0 0 0 0 0 0 0 0 0 0 0 0 0 0 0 0 0 0 0 0 0 0 0 0 0 0 0 0 0
CIN
-10 -16 -18 -10 -7 -7 -10 -11 -6 -9 -7 -6 -2 -1 -1 -2 -2 -2 -3 -5 -4 -1 -6 -25 -10 0 0 0 -1 0 0 0 0 0 0 0 0 0 0 0 0 0 -1 -3 -4 -6 -2 -24 -49 -23 -14 -30 -42 -32
-12 -16 -18 -19 -7 -12 -20 -10 -11 -11 -10 -7 -4 -5 -5 -2 -3 -5 -2 -5 -2 -1 -7 0 0 0 0 0 -4 0 0 0 0 0 0 0 0 0 0 0 0 -1 -14 -3 -16 -3 0 -53 -30 -28 -56 -60 -49 -57
-14 -15 -19 -21 -10 -17 -10 -20 -13 -12 -10 -7 -6 -4 -6 -3 -4 -9 -1 -4 -3 0 -3 -1 0 0 0 0 0 0 0 0 0 0 0 0 0 0 0 0 0 0 -35 0 0 0 0 0 -56 -88 -87 -52 -60 -65
-16 -15 -16 -24 -17 -13 -22 -12 -16 -13 -11 -7 -9 -9 -9 -7 -4 -10 -2 -6 -3 -2 -1 0 0 0 0 0 0 0 0 0 0 0 0 0 0 0 0 0 0 0 0 0 0 0 0 -30 -54 -58 -49 -61 -62 -65
-7 -16 -22 -20 -20 -14 -14 -21 -23 -17 -12 -10 -11 -12 -11 -9 -8 -3 -7 -17 -10 -1 0 -1 0 0 0 0 0 0 0 0 0 0 0 0 0 0 0 0 0 0 0 0 0 0 0 -17 -71 -64 -57 -61 -66 -71
-10 -14 -19 -18 -17 -16 -28 -38 -14 -9 -9 -11 -10 -11 -11 -8 -5 -2 0 -1 0 -2 -1 -3 0 0 0 0 0 0 0 0 0 0 0 0 0 0 0 0 0 0 0 0 0 -38 -66 -91 -104 -94 -76 -73 -74 -67
-7 -13 -17 -15 -13 -14 -39 -24 -17 -12 -10 -11 -16 -10 -11 -14 -3 0 0 -1 -13 -2 -1 -4 0 0 0 0 0 0 0 0 0 0 0 0 0 -1 -4 0 0 0 0 0 -6 -63 -23 -32 -31 -70 -91 -101 -93 -71
-18 -16 -16 -15 -11 -21 0 -24 -22 -16 -14 -17 -19 -10 -10 -18 -4 0 -3 -14 -10 -4 -2 -11 0 0 0 0 0 0 0 0 0 0 0 0 0 0 -2 0 0 0 0 0 0 -49 -61 -83 -96 -72 -79 -92 -70 -40
-20 -12 -16 -12 -10 0 -36 -28 -35 -26 -23 -17 -10 -13 -7 -5 -1 0 -32 -28 -8 -11 -1 -2 0 0 0 0 0 0 0 0 0 0 0 0 0 0 0 0 0 -32 -67 -59 -65 -72 -68 -52 -54 -45 -71 -81 -86 -65
-18 -13 -10 -12 -16 -16 -17 -21 -28 -19 -16 -10 -10 0 -5 -18 -18 -13 -5 -5 -6 -5 -7 -1 0 0 0 -19 0 0 0 -11 0 0 0 0 0 0 0 -107 -102 -95 -106 -96 -67 -71 -86 -69 -49 -37 -38 -82 -88 -73
-15 -8 -6 -9 -10 -8 -22 -21 -26 -12 -9 0 -5 -1 -7 -18 -8 -6 -1 0 -1 0 -1 0 0 0 0 0 -33 0 0 0 0 -20 0 -3 -61 -72 -74 -56 -54 -52 -38 -29 -30 -18 -9 -32 -35 -37 -48 -44 -38 -36
-11 -10 -8 -11 -13 -15 -22 -24 -20 -5 0 -6 -2 -7 -7 -4 -1 0 0 -1 -1 -2 0 0 0 0 0 0 -37 -46 -21 -55 -12 -103 -26 -13 -50 -48 -39 -35 -35 -26 -36 -37 -18 -20 -14 -22 -63 -49 -26 -51 -36 -55
-14 -10 -10 -19 -24 -21 -19 -23 -22 -18 0 -3 -4 -1 -1 -1 -1 -2 -3 0 0 0 -43 0 0 0 0 -26 -24 -40 -8 -4 -72 -17 -1 -12 -23 -15 -19 -29 -26 -20 -5 -7 0 0 0 0 0 -29 -24 -5 -16 -32
-16 -17 -14 -18 -23 -17 -17 -19 -9 -4 0 0 0 -2 0 0 0 0 0 0 -3 -17 -63 0 0 0 -29 -21 0 0 -9 -20 -17 -9 -2 -6 -3 -20 -26 -30 -20 -22 0 0 0 0 0 0 0 0 0 -3 -8 -9
-16 -18 -16 -16 -12 -17 -12 -7 0 0 -1 0 0 -7 0 -6 0 0 0 0 0 0 0 -17 0 0 -17 -27 -17 -1 0 0 0 -2 0 0 -33 -27 -27 -30 -39 -41 -34 -14 -28 -23 -7 -4 -8 -8 0 0 -16 -13
-13 -9 -10 -11 -10 -12 -13 0 -1 0 0 0 0 -4 -9 -33 -18 0 0 0 0 0 0 0 -10 0 -24 0 -9 -12 0 -1 0 -5 -14 0 -29 -49 -47 -40 -45 -42 -29 -23 -24 -24 -45 -17 0 -30 -19 -12 -23 -28
-9 -1 -7 -5 -1 -15 -4 -13 -16 -3 -2 0 0 0 0 0 -4 0 0 0 -50 -99 -10 -15 0 -3 -49 -37 -49 -8 -3 -2 -7 -8 -30 -4 -46 -64 -58 -5 -44 -15 -8 -11 -10 -38 -49 -55 -59 -48 -30 -12 -3 -10
0 -3 0 0 -3 -1 -2 -1 -2 0 0 0 0 0 0 0 0 0 0 -57 -119 -51 -33 -16 -14 0 0 0 0 0 0 0 0 0 0 0 0 0 0 0 -27 -8 -2 -14 -26 -22 -26 -42 -41 -17 -9 -2 0 -2
0 0 0 -1 -7 -19 -1 -1 0 0 0 0 0 0 0 0 0 0 0 0 0 -85 -44 -48 0 0 0 0 0 0 0 0 0 0 0 0 0 0 0 0 0 0 0 0 0 0 -17 -10 -4 -2 0 -3 0 0
0 0 0 0 -8 -2 0 0 0 0 0 0 -6 -1 -27 -12 -75 -34 0 0 -77 0 0 0 0 0 0 0 0 0 0 0 0 -10 -26 -38 0 0 0 0 0 0 0 0 0 0 0 0 0 -21 -10 -21 -12 0
0 0 0 0 0 0 0 0 0 0 0 0 0 -13 -9 -12 -15 0 0 0 0 -1 0 -11 -16 -41 0 0 0 -5 0 0 -32 -16 -24 0 0 -36 -30 0 0 0 0 0 0 0 0 0 0 -17 -15 0 0 0
0 0 0 0 0 0 0 0 0 0 0 0 -12 -2 -10 -27 -29 -45 -48 -73 -5 -17 -20 -21 -28 -25 -29 -42 -56 -4 -69 -55 -49 -70 -67 -50 -22 -27 0 0 0 0 0 0 0 0 0 0 0 0 0 0 0 0
0 0 0 0 0 0 0 0 0 0 -2 -19 -46 -13 -11 -1 -7 -33 -8 -5 -3 0 -78 -62 -60 -75 -81 -56 0 -62 -54 -45 -35 -24 -39 -45 -31 0 0 0 0 0 0 0 0 0 0 0 0 0 0 0 0 0
0 0 0 0 0 0 0 0 0 0 0 -10 -6 0 0 0 -14 -1 0 -11 -31 -47 -42 -48 -47 -42 -40 -32 -42 -53 -75 -14 -59 -58 -77 -39 0 0 0 0 0 0 0 0 0 0 0 0 0 0 0 0 0 0
0 0 0 0 0 0 0 0 0 0 0 0 0 0 0 0 -4 -2 0 -2 -9 -44 -44 -57 -75 -61 0 0 0 0 0 0 -35 0 0 -52 0 0 0 0 0 0 0 0 0 0 0 0 0 0 0 0 0 0
0 0 0 0 0 0 0 0 0 0 0 0 0 0 0 0 0 0 -1 -23 -54 -87 -74 -29 0 0 0 0 0 0 0 0 0 0 0 0 0 0 0 0 0 0 0 0 0 0 0 0 0 0 0 0 0 0
0 0 0 0 0 0 0 0 0 0 0 0 0 -1 -2 -1 0 -1 -24 -51 -65 0 0 0 0 0 0 0 0 0 0 0 0 0 0 0 0 0 0 0 0 0 0 0 0 0 0 0 0 0 0 0 0 0
0 0 0 0 0 0 0 0 0 0 0 0 0 -1 -9 -8 -3 -51 -63 0 0 0 0 0 0 0 0 0 0 0 0 0 0 0 0 0 0 0 0 0 0 0 0 0 0 0 0 0 0 0 0 0 0 0
0 0 0 0 0 0 0 0 0 0 0 0 0 0 0 0 0 0 0 0 0 0 0 0 0 0 0 0 0 0 0 0 0 0 0 0 0 0 0 0 0 0 0 0 0 0 0 0 0 0 0 0 0 0
0 0 0 0 0 0 0 0 0 0 0 0 0 0 0 0 0 0 0 0 0 0 0 0 0 0 0 0 0 0 0 0 0 0 0 0 0 0 0 0 0 0 0 0 0 0 0 0 0 0 0 0 0 0
0 0 0 0 0 0 0 0 0 0 0 0 0 0 0 0 0 0 0 0 0 0 0 0 0 0 0 0 0 0 0 0 0 0 0 0 0 0 0 0 0 0 0 0 0 0 0 0 0 0 0 0 0 0
0 0 0 0 0 0 0 0 0 0 0 0 0 0 0 0 0 -1 0 0 0 0 0 0 0 0 0 0 0 0 0 0 0 0 0 0 0 0 0 0 0 0 0 0 0 0 0 0 0 0 0 0 0 0
-11 0 -5 -11 -18 0 0 0 0 0 0 0 0 0 0 0 0 -2 -7 0 0 0 0 0 0 0 0 0 0 0 0 0 0 0 0 0 0 0 0 0 0 0 0 0 0 0 0 0 0 0 0 0 0 0
Wind_Speed
32 32 32 30 28 28 28 29 29 28 27 27 25 25 25 24 23 22 22 19 21 25 29 23 23 25 25 25 27 24 26 22 24 25 26 26 27 24 26 24 24 24 24 24 23 26 29 16 19 23 25 24 24 26
32 32 31 31 28 26 25 27 27 28 27 26 26 25 24 22 23 22 23 20 19 25 27 24 29 28 25 26 25 24 26 24 22 23 23 24 25 23 24 27 20 26 22 24 20 21 24 22 21 22 23 25 27 29
31 31 29 29 28 26 25 24 25 26 26 26 26 25 24 23 22 21 22 21 20 26 32 32 32 28 23 24 22 26 23 21 22 22 25 25 27 23 27 26 25 21 18 21 24 20 27 27 23 22 20 21 23 26
31 31 29 27 26 25 26 26 24 25 27 26 25 25 24 23 22 22 21 20 20 23 27 27 22 23 21 19 18 20 24 21 20 23 25 26 27 22 27 27 26 23 19 24 29 30 29 23 23 23 20 20 26 30
30 27 26 24 23 22 24 25 25 25 25 25 25 24 24 23 21 23 22 24 22 20 24 25 30 34 27 22 21 20 20 21 23 24 24 25 24 26 28 29 30 22 28 31 35 28 28 27 27 22 24 27 28 31
32 31 27 18 19 18 19 22 24 23 23 23 24 25 24 21 20 19 20 21 20 19 22 24 22 24 23 18 18 16 15 16 17 20 24 23 22 23 28 29 24 21 22 21 21 23 28 27 25 22 25 29 28 28
31 28 14 7 12 14 17 19 19 21 22 22 24 24 23 20 19 19 18 17 15 13 20 22 21 18 18 15 15 13 8 13 14 16 19 19 18 16 24 30 30 33 29 25 23 23 27 23 23 26 29 27 26 25
28 19 6 5 8 15 16 17 16 17 21 23 23 22 20 20 22 24 24 17 8 12 18 21 21 20 15 15 12 9 8 9 8 13 16 15 15 19 23 28 28 27 25 22 16 15 27 34 35 33 29 27 25 24
22 8 3 4 5 9 13 14 13 15 19 21 19 18 18 17 19 19 14 11 12 16 19 20 19 18 16 12 11 8 6 8 12 14 18 18 21 23 23 23 24 21 20 22 21 22 25 28 31 30 28 26 25 27
13 3 1 2 3 6 8 13 13 14 16 14 16 17 20 18 10 3 12 15 16 19 20 20 14 16 16 16 14 11 16 16 18 19 12 17 20 23 22 23 25 24 21 20 20 24 27 29 27 25 25 23 23 24
5 2 2 5 7 5 9 17 17 15 13 16 19 19 15 11 11 14 16 17 15 19 17 21 26 30 21 22 19 18 17 15 19 14 11 17 22 17 19 20 17 17 19 21 20 22 23 24 26 26 25 23 21 23
6 2 9 15 18 26 27 28 25 24 22 19 17 13 12 15 15 15 16 16 18 20 20 23 25 24 22 22 23 21 21 20 21 14 22 21 16 15 17 15 16 17 19 20 20 22 24 26 26 27 26 21 21 21
17 28 25 27 28 27 27 28 30 24 22 19 15 14 17 15 17 19 21 21 22 21 21 21 21 20 21 23 23 21 22 22 17 19 19 15 14 13 15 15 17 18 20 21 23 24 26 27 28 28 27 25 26 26
20 25 28 28 27 27 27 28 30 27 24 21 17 21 21 21 24 26 27 22 21 19 18 19 20 20 19 23 21 21 22 19 21 21 15 12 12 13 17 18 19 21 21 22 23 23 26 27 27 26 25 25 25 27
27 26 27 26 27 27 27 30 32 26 22 21 21 25 26 22 22 21 23 23 23 20 19 21 18 19 17 17 20 18 17 15 16 15 13 13 14 15 17 21 22 22 23 24 26 27 27 26 26 26 25 25 25 25
27 24 23 26 26 28 31 32 26 21 19 19 22 21 21 20 20 21 25 24 21 22 22 20 18 19 19 19 20 16 14 14 16 13 10 12 14 16 19 21 23 23 24 24 25 25 25 26 27 26 26 26 26 26
21 21 27 29 31 32 29 23 20 18 16 17 19 18 19 19 21 21 23 21 20 24 22 17 15 19 16 13 14 14 12 9 10 11 11 13 16 19 21 23 24 24 23 24 25 25 27 27 27 28 28 28 27 27
21 25 26 30 33 28 23 21 20 18 20 21 19 16 18 19 19 20 19 20 21 20 20 14 12 11 11 12 12 11 10 10 11 13 15 17 18 20 21 23 24 24 24 25 25 25 25 28 29 29 28 28 28 28
31 33 35 32 25 22 20 18 17 21 19 15 16 18 19 16 14 16 17 16 17 12 13 12 9 8 7 9 7 8 9 11 12 15 17 18 19 20 21 22 23 24 25 25 26 27 25 25 25 27 28 28 29 29
31 32 29 21 18 18 19 18 21 20 19 18 15 13 16 14 12 8 6 11 16 15 6 7 6 9 8 8 9 9 10 11 13 15 17 18 19 21 22 23 23 24 25 26 25 25 24 24 24 25 26 27 29 29
23 20 17 16 17 18 15 16 18 18 18 15 12 11 14 7 5 5 5 2 3 8 10 8 7 7 8 9 10 12 15 15 16 17 17 18 19 21 22 24 25 26 27 28 26 27 26 24 22 24 25 26 26 26
16 14 15 15 14 14 14 13 13 15 17 19 17 13 10 10 6 4 3 2 5 7 9 7 7 7 11 11 12 12 18 19 18 18 19 19 20 21 23 25 26 27 28 28 27 27 27 25 24 25 25 25 26 26
13 12 12 11 11 11 13 12 13 11 14 13 12 13 13 10 8 11 10 7 4 6 8 7 6 7 12 8 6 9 10 15 20 19 19 19 20 21 23 25 27 27 27 27 26 26 26 25 25 24 23 24 25 27
12 12 11 10 9 13 13 13 11 11 10 11 12 11 9 8 7 6 6 6 6 6 4 6 10 9 5 7 6 8 13 19 19 19 19 18 19 21 22 24 25 25 25 24 25 25 25 24 22 22 22 21 21 24
15 12 13 13 12 14 14 13 11 11 12 10 11 10 10 10 10 9 8 7 6 6 8 9 8 8 8 8 9 16 21 11 11 15 19 17 17 18 19 21 24 25 23 23 24 24 25 24 24 24 24 23 22 22
17 13 15 13 14 13 14 16 14 14 14 13 12 14 17 14 13 13 11 9 9 9 11 9 8 15 20 23 24 24 21 21 18 17 18 18 18 19 21 22 23 24 25 25 24 25 25 25 26 26 26 27 26 26
16 15 15 15 17 17 16 14 14 13 14 14 15 15 15 14 14 17 12 10 10 10 9 10 19 23 23 23 23 23 23 23 21 19 19 20 20 21 21 21 22 22 23 24 26 26 25 24 25 26 26 25 25 24
16 15 17 15 15 14 16 14 14 15 16 18 17 16 16 16 17 14 13 12 15 19 20 21 22 23 24 24 24 23 20 17 17 18 19 21 21 22 22 21 21 21 22 22 24 25 25 23 23 23 23 23 23 22
17 16 17 15 16 15 13 14 15 15 18 17 17 17 16 15 13 13 14 19 18 17 19 20 21 21 23 23 25 25 25 24 20 17 18 19 20 22 23 21 19 17 17 18 21 23 23 21 21 22 21 21 21 22
16 16 19 18 19 17 15 16 18 18 18 18 20 23 20 17 13 16 18 16 13 13 15 17 17 19 20 21 22 24 25 25 24 22 22 22 21 21 22 22 21 20 16 14 15 18 20 20 20 20 21 21 21 22
19 21 21 21 22 22 23 22 19 18 18 17 22 25 24 20 17 17 19 18 18 18 18 19 18 18 18 18 19 20 22 22 22 21 20 19 18 19 21 23 24 23 21 17 16 17 18 19 21 22 22 22 20 19
22 22 24 25 24 24 22 18 19 21 22 20 20 18 17 17 17 17 17 18 19 19 19 20 22 22 21 20 18 18 19 19 18 18 17 17 16 16 17 19 23 23 24 21 18 17 17 17 19 20 21 21 21 21
22 21 22 22 22 21 20 19 18 18 17 17 18 19 18 17 19 18 16 16 17 19 19 19 19 19 19 19 18 17 16 17 18 18 18 19 17 15 15 15 18 20 22 22 20 17 16 15 15 15 16 18 18 17
Wind_Direction
291 290 288 287 287 289 290 288 287 287 289 291 294 294 295 297 296 293 288 293 285 286 285 291 291 287 290 291 288 297 298 299 297 292 293 293 294 296 299 302 304 305 308 310 314 312 315 342 336 327 329 334 337 338
290 289 287 285 284 287 289 287 287 286 286 288 290 293 294 297 294 297 287 295 288 286 289 295 288 287 288 285 291 294 290 297 301 297 297 298 296 300 299 298 307 301 304 309 310 316 326 329 326 326 329 329 328 327
291 288 287 283 283 283 287 288 285 285 284 285 287 289 290 293 292 293 289 290 293 290 287 286 284 289 287 281 281 287 292 292 292 299 298 298 294 300 297 299 303 305 309 309 313 318 320 324 326 328 329 331 334 333
289 287 284 283 282 281 282 285 286 283 282 282 284 285 288 290 289 291 284 290 289 295 292 295 301 293 294 289 279 277 279 294 297 299 294 290 291 300 297 298 297 304 308 306 305 311 317 325 328 330 333 336 330 328
287 288 287 285 284 282 282 283 282 281 280 280 280 282 284 285 286 287 282 280 282 290 294 302 297 289 285 281 278 279 280 278 285 289 289 289 294 297 295 295 292 299 296 297 299 313 315 315 317 326 325 325 328 325
272 268 278 292 289 286 287 285 280 279 279 277 276 278 278 280 285 281 289 282 273 281 299 301 305 298 295 291 289 278 269 279 287 292 291 293 298 297 296 296 306 306 310 307 307 312 314 314 314 325 324 319 324 329
267 276 302 301 294 291 290 287 284 278 274 273 273 275 274 277 275 270 285 293 288 274 290 300 303 303 306 301 291 287 277 288 291 299 297 300 305 300 297 293 294 294 301 304 308 315 310 317 318 317 315 321 328 333
276 295 316 309 297 290 290 285 290 284 270 267 269 271 273 275 268 265 268 284 295 279 290 292 292 298 315 301 293 299 290 298 303 305 307 310 312 299 298 288 294 302 312 311 318 325 302 294 299 305 312 317 324 331
288 320 328 324 316 302 290 286 293 281 269 266 265 269 269 264 262 263 280 294 289 280 288 287 286 293 310 305 303 312 310 309 302 299 296 296 287 281 292 298 302 306 313 309 318 323 324 328 316 312 309 309 316 320
303 335 4 52 337 317 296 288 283 273 267 262 254 247 248 255 280 299 275 279 279 280 280 282 292 285 290 280 277 288 271 281 288 287 313 294 293 286 293 288 277 287 307 319 318 310 304 333 328 316 319 318 316 326
328 47 104 105 103 92 288 256 246 246 245 237 233 241 256 250 259 262 269 268 277 278 277 269 248 223 249 239 249 258 272 287 277 300 300 280 260 301 294 289 315 323 312 303 317 330 333 348 331 316 312 331 337 328
312 61 120 130 138 174 193 197 211 214 212 217 242 250 240 241 258 261 264 266 261 256 252 234 231 231 237 231 224 231 237 241 229 280 230 246 281 301 289 322 339 330 326 328 335 337 329 320 312 310 307 351 345 342
235 182 153 166 183 191 193 194 189 204 216 227 233 235 235 250 249 242 229 227 225 229 225 228 227 225 222 223 213 216 209 196 247 227 234 267 268 286 317 320 330 330 327 324 320 308 309 309 313 317 318 327 323 325
215 201 192 188 191 193 192 191 186 187 190 197 221 216 219 215 209 205 205 216 219 218 222 221 212 218 224 214 220 207 207 216 226 224 269 274 285 310 351 350 322 322 315 319 313 300 305 310 312 329 338 338 336 324
181 184 184 186 187 187 187 184 181 185 191 199 199 188 193 202 206 210 207 202 197 208 210 204 216 220 225 236 226 212 216 239 242 257 251 260 286 307 328 333 338 333 325 317 316 323 331 338 340 342 345 342 342 337
172 180 189 183 184 178 171 175 181 190 192 189 192 190 196 202 202 199 191 194 201 201 198 204 205 202 209 207 210 229 244 251 262 253 271 293 306 318 343 345 335 331 335 343 349 350 349 347 345 346 348 348 346 344
179 180 175 170 165 165 168 182 189 193 197 184 184 197 200 198 193 191 191 193 193 186 193 204 213 206 222 250 244 242 260 283 266 248 302 339 354 351 352 346 344 350 356 357 356 356 354 354 355 350 342 342 343 342
173 172 172 165 158 165 171 177 174 176 166 163 169 179 178 187 189 191 198 200 191 195 198 218 246 249 256 285 268 259 269 301 343 7 8 4 3 0 358 355 357 4 7 4 3 3 4 2 1 1 359 351 345 342
157 150 146 145 155 160 168 179 186 160 164 173 173 176 174 180 192 194 193 194 191 203 207 222 261 264 257 215 314 305 310 329 346 14 8 4 8 5 6 10 10 11 12 10 9 10 12 13 11 5 360 358 357 353
148 144 147 154 170 164 165 162 162 161 153 151 151 165 167 173 179 185 190 197 190 195 212 220 230 225 240 272 222 221 265 315 19 24 17 16 18 15 13 14 9 4 5 8 14 17 23 24 24 17 10 6 358 353
150 159 171 173 158 154 165 165 162 156 147 144 152 134 146 127 109 146 153 193 161 201 194 213 233 259 264 257 297 330 357 356 7 16 38 41 35 24 22 13 12 10 11 13 25 25 27 31 34 27 20 12 8 12
170 182 177 178 175 169 168 175 176 164 151 143 148 153 152 142 121 114 168 66 190 197 208 232 261 303 346 345 337 333 21 35 39 44 47 68 77 55 31 26 12 13 19 25 31 33 33 39 42 41 37 25 19 12
177 181 183 187 186 183 173 180 175 180 169 172 177 166 165 171 182 181 179 189 223 242 222 228 256 325 357 326 287 319 317 4 50 44 41 51 50 44 35 25 22 16 18 24 33 36 37 43 43 47 51 44 28 14
183 185 187 194 190 177 181 177 186 182 183 177 173 173 181 187 192 188 186 199 207 217 228 221 185 184 264 296 271 277 319 12 36 41 47 67 54 43 40 32 28 29 33 36 34 31 32 39 47 47 48 51 51 36
175 179 179 175 179 174 174 177 185 185 176 181 183 190 190 193 184 183 187 207 214 232 210 208 239 274 266 197 251 307 2 116 131 79 35 49 53 52 47 44 34 32 41 38 34 32 28 34 38 41 42 42 50 56
167 176 175 187 187 186 186 175 181 183 184 185 188 184 178 182 182 179 181 197 194 194 191 214 241 326 347 357 3 349 344 10 50 52 39 37 34 31 24 23 27 25 24 30 32 32 36 35 33 34 40 43 48 49
167 170 174 173 172 173 174 180 183 190 191 194 192 188 187 184 184 176 191 200 192 192 201 308 354 16 22 21 33 30 23 21 31 39 40 34 30 28 28 29 27 31 31 30 31 28 34 42 43 42 44 45 46 48
165 171 164 171 171 178 176 184 187 185 181 177 179 184 185 184 179 195 200 207 170 114 35 22 22 28 31 33 34 32 43 49 48 44 42 34 28 25 25 31 33 34 34 34 33 29 33 43 47 47 47 46 41 46
158 164 161 161 161 165 171 171 170 173 171 173 172 173 176 177 185 192 179 129 106 90 66 57 48 44 36 30 22 16 14 20 42 51 42 37 35 26 22 29 38 47 51 47 41 32 34 43 46 44 45 47 44 40
155 160 152 150 146 147 151 154 150 150 151 153 148 132 144 151 169 139 101 110 133 112 79 61 53 45 44 40 34 27 27 29 34 38 38 37 38 35 28 26 27 31 47 58 59 49 48 45 42 42 41 41 40 37
155 148 145 144 142 143 140 140 144 145 146 144 122 77 81 113 117 117 82 78 60 54 56 52 54 55 55 53 49 47 42 49 51 52 53 54 52 49 41 33 25 24 30 48 58 52 47 45 41 39 38 36 38 41
145 142 137 136 138 141 141 146 140 127 121 118 111 110 110 113 103 94 92 79 71 67 62 55 40 42 47 51 58 55 54 55 57 56 55 53 52 53 52 44 33 28 25 34 45 46 45 44 41 38 37 35 34 35
143 142 140 142 137 137 139 134 129 128 126 116 105 100 100 99 81 87 99 93 68 59 57 56 56 54 54 55 52 52 53 50 45 43 41 39 44 52 53 53 45 39 30 32 39 45 48 47 45 43 38 34 34 36